TimeCST,TemperatureF,Dew PointF,Humidity,Sea Level PressureIn,VisibilityMPH,Wind Direction,Wind SpeedMPH,Gust SpeedMPH,PrecipitationIn,Events,Conditions,WindDirDegrees,DateUTC
12:15 AM,4.6,-1.8,75,30.34,10.0,SSW,8.1,-,N/A,,Clear,200,2014-01-29 06:15:00
12:35 AM,5.2,-1.3,75,30.34,10.0,SSW,6.9,-,N/A,,Clear,200,2014-01-29 06:35:00
12:55 AM,5.0,-1.3,75,30.33,10.0,SSW,6.9,-,N/A,,Clear,200,2014-01-29 06:55:00
1:15 AM,5.5,-1.3,73,30.33,10.0,SSW,5.8,-,N/A,,Clear,210,2014-01-29 07:15:00
1:35 AM,4.5,-1.7,76,30.33,10.0,SSW,5.8,-,N/A,,Clear,200,2014-01-29 07:35:00
1:55 AM,5.4,-1.5,73,30.32,10.0,SSW,8.1,-,N/A,,Clear,200,2014-01-29 07:55:00
2:15 AM,6.1,-1.3,72,30.32,10.0,SSW,6.9,-,N/A,,Clear,200,2014-01-29 08:15:00
2:35 AM,5.9,-1.3,72,30.32,10.0,SSW,6.9,-,N/A,,Clear,200,2014-01-29 08:35:00
2:55 AM,5.0,-1.5,75,30.32,10.0,SSW,6.9,-,N/A,,Clear,200,2014-01-29 08:55:00
3:15 AM,5.4,-1.3,74,30.31,10.0,South,8.1,-,N/A,,Clear,190,2014-01-29 09:15:00
3:35 AM,5.0,-1.8,73,30.30,10.0,SSW,8.1,-,N/A,,Clear,200,2014-01-29 09:35:00
3:55 AM,5.5,-1.5,73,30.30,10.0,SSW,8.1,-,N/A,,Clear,200,2014-01-29 09:55:00
4:15 AM,5.7,-1.3,73,30.30,10.0,SSW,8.1,-,N/A,,Clear,200,2014-01-29 10:15:00
4:35 AM,6.1,-1.5,71,30.30,10.0,SSW,6.9,-,N/A,,Clear,200,2014-01-29 10:35:00
4:55 AM,6.1,-1.3,72,30.30,10.0,South,8.1,-,N/A,,Clear,190,2014-01-29 10:55:00
5:15 AM,5.5,-1.5,73,30.30,10.0,SSW,8.1,-,N/A,,Clear,200,2014-01-29 11:15:00
5:35 AM,5.7,-1.3,73,30.30,10.0,SSW,6.9,-,N/A,,Clear,210,2014-01-29 11:35:00
5:55 AM,5.4,-1.3,74,30.30,10.0,SSW,6.9,-,N/A,,Clear,210,2014-01-29 11:55:00
6:15 AM,6.1,-0.9,73,30.30,10.0,SSW,8.1,-,N/A,,Clear,210,2014-01-29 12:15:00
6:35 AM,6.4,-1.1,71,30.31,10.0,SW,6.9,-,N/A,,Clear,220,2014-01-29 12:35:00
6:55 AM,5.2,-1.5,74,30.31,10.0,SSW,6.9,-,N/A,,Clear,210,2014-01-29 12:55:00
7:15 AM,3.9,-1.7,78,30.31,10.0,SSW,5.8,-,N/A,,Clear,200,2014-01-29 13:15:00
7:35 AM,6.1,0.1,77,30.31,10.0,South,5.8,-,N/A,,Clear,190,2014-01-29 13:35:00
7:55 AM,8.6,2.1,75,30.31,10.0,South,5.8,-,N/A,,Clear,190,2014-01-29 13:55:00
8:15 AM,11.1,3.6,72,30.31,10.0,SSW,5.8,-,N/A,,Clear,200,2014-01-29 14:15:00
8:35 AM,14.5,4.3,64,30.31,10.0,SW,10.4,-,N/A,,Clear,220,2014-01-29 14:35:00
8:55 AM,15.8,3.4,58,30.32,10.0,SW,10.4,-,N/A,,Clear,230,2014-01-29 14:55:00
9:15 AM,17.1,4.5,58,30.32,10.0,SSW,9.2,-,N/A,,Clear,210,2014-01-29 15:15:00
9:35 AM,17.6,3.4,54,30.32,10.0,SSW,9.2,-,N/A,,Clear,210,2014-01-29 15:35:00
9:55 AM,19.8,4.3,51,30.32,10.0,SW,9.2,-,N/A,,Clear,220,2014-01-29 15:55:00
10:15 AM,21.0,4.1,48,30.31,10.0,SSW,9.2,-,N/A,,Clear,210,2014-01-29 16:15:00
10:35 AM,22.5,4.3,46,30.31,10.0,SW,9.2,-,N/A,,Clear,220,2014-01-29 16:35:00
10:55 AM,23.7,4.5,44,30.31,10.0,SW,10.4,-,N/A,,Clear,220,2014-01-29 16:55:00
11:15 AM,24.8,4.8,43,30.30,10.0,SW,12.7,-,N/A,,Clear,220,2014-01-29 17:15:00
11:35 AM,25.5,3.9,40,30.30,10.0,WSW,12.7,16.1,N/A,,Clear,250,2014-01-29 17:35:00
11:55 AM,26.6,4.3,39,30.29,10.0,SW,15.0,18.4,N/A,,Clear,220,2014-01-29 17:55:00
12:15 PM,28.2,3.4,35,30.28,10.0,SW,17.3,20.7,N/A,,Clear,230,2014-01-29 18:15:00
12:35 PM,27.9,3.2,35,30.27,10.0,SSW,17.3,21.9,N/A,,Clear,210,2014-01-29 18:35:00
12:55 PM,28.4,3.0,34,30.26,10.0,SSW,13.8,19.6,N/A,,Clear,210,2014-01-29 18:55:00
1:15 PM,28.8,1.4,31,30.25,10.0,WSW,12.7,21.9,N/A,,Clear,240,2014-01-29 19:15:00
1:35 PM,29.5,2.3,31,30.25,10.0,SSW,15.0,25.3,N/A,,Clear,210,2014-01-29 19:35:00
1:55 PM,29.7,2.7,32,30.24,10.0,SW,17.3,23.0,N/A,,Clear,220,2014-01-29 19:55:00
2:15 PM,30.2,2.7,31,30.24,10.0,SSW,13.8,19.6,N/A,,Clear,200,2014-01-29 20:15:00
2:35 PM,30.6,3.4,32,30.23,10.0,SSW,16.1,19.6,N/A,,Clear,210,2014-01-29 20:35:00
2:55 PM,29.8,3.0,32,30.22,10.0,SW,18.4,21.9,N/A,,Clear,220,2014-01-29 20:55:00
3:15 PM,30.2,2.5,31,30.22,10.0,SSW,16.1,23.0,N/A,,Clear,210,2014-01-29 21:15:00
3:35 PM,30.2,3.0,32,30.21,10.0,SSW,16.1,27.6,N/A,,Clear,200,2014-01-29 21:35:00
3:55 PM,30.2,3.0,32,30.20,10.0,South,17.3,20.7,N/A,,Clear,190,2014-01-29 21:55:00
4:15 PM,29.8,3.0,32,30.21,10.0,SSW,16.1,-,N/A,,Clear,200,2014-01-29 22:15:00
4:35 PM,29.3,4.3,35,30.20,10.0,South,11.5,-,N/A,,Clear,190,2014-01-29 22:35:00
4:55 PM,28.2,5.2,38,30.20,10.0,South,10.4,-,N/A,,Clear,180,2014-01-29 22:55:00
5:15 PM,26.6,5.5,41,30.19,10.0,South,10.4,-,N/A,,Clear,180,2014-01-29 23:15:00
5:35 PM,24.4,5.7,45,30.18,10.0,South,9.2,-,N/A,,Clear,170,2014-01-29 23:35:00
5:55 PM,23.9,5.5,46,30.18,10.0,South,10.4,-,N/A,,Clear,170,2014-01-29 23:55:00
6:15 PM,23.7,5.9,47,30.18,10.0,South,10.4,-,N/A,,Clear,170,2014-01-30 00:15:00
6:35 PM,23.4,6.1,48,30.17,10.0,SSE,11.5,-,N/A,,Clear,160,2014-01-30 00:35:00
6:55 PM,23.5,5.9,47,30.17,10.0,SSE,10.4,-,N/A,,Clear,160,2014-01-30 00:55:00
7:15 PM,23.4,6.4,48,30.16,10.0,SSE,11.5,-,N/A,,Clear,160,2014-01-30 01:15:00
7:35 PM,23.5,6.8,49,30.16,10.0,SSE,13.8,-,N/A,,Clear,160,2014-01-30 01:35:00
7:55 PM,23.2,6.6,49,30.16,10.0,South,15.0,-,N/A,,Clear,170,2014-01-30 01:55:00
8:15 PM,23.0,6.4,49,30.15,10.0,SSE,16.1,-,N/A,,Clear,160,2014-01-30 02:15:00
8:35 PM,22.6,6.8,51,30.15,10.0,SSE,15.0,-,N/A,,Clear,160,2014-01-30 02:35:00
8:55 PM,22.1,7.7,54,30.14,10.0,South,15.0,20.7,N/A,,Clear,170,2014-01-30 02:55:00
9:15 PM,21.7,7.9,55,30.13,10.0,SSE,16.1,-,N/A,,Clear,160,2014-01-30 03:15:00
9:35 PM,21.7,7.9,55,30.12,10.0,SSE,16.1,21.9,N/A,,Clear,160,2014-01-30 03:35:00
9:55 PM,21.7,7.9,55,30.13,10.0,South,16.1,-,N/A,,Clear,170,2014-01-30 03:55:00
10:15 PM,21.6,8.4,57,30.12,10.0,South,17.3,-,N/A,,Clear,170,2014-01-30 04:15:00
10:35 PM,21.2,8.4,58,30.12,10.0,South,16.1,-,N/A,,Clear,170,2014-01-30 04:35:00
10:55 PM,20.7,9.1,61,30.12,10.0,South,13.8,-,N/A,,Clear,180,2014-01-30 04:55:00
11:15 PM,20.5,9.5,63,30.11,10.0,South,15.0,-,N/A,,Clear,170,2014-01-30 05:15:00
11:35 PM,20.8,9.5,62,30.11,10.0,South,15.0,-,N/A,,Clear,170,2014-01-30 05:35:00
11:55 PM,20.8,9.5,62,30.09,10.0,South,15.0,-,N/A,,Clear,170,2014-01-30 05:55:00